Showing default

GONETS M 13 (M23), 40554

Orbit data source: Space-Track

GONETS M 13 (M23), 40554 is a payload satellite owned by Gonets (CIS) in LEO that was launched on Tue, 31 Mar 2015 UTC via an ROKOT launch vehicle from the Plesetsk Missile And Space Complex (PKMTR). Payload-class satellites include a variety of spacecraft equipped with specific instruments for various scientific and technological missions. These include communications satellites like Starlink; space stations such as the ISS; scientific satellites like the Hubble; Earth observation satellites from companies like Planet Labs, Umbra, and HawkEye 360; GPS; miniature CubeSats for education and research; and military/defense satellites.

Loading next visibility...
Identifier
40554, 2015-020C
Orbit
LEO
Country
Flag of CISCIS
Related business
Manufacturer
Resehetnev ISS
Mission
Operational Commercial Communications
Bus & Motor
STRELA-3M, Unknown motor
Mass
225 kg wet, 225 kg dry
Launch date (UTC)
2015-03-31 (11 years ago)
Launch vehicle
ROKOT
Launch site
Plesetsk Missile And Space Complex (PKMTR)
Object type
Payload
Rocket body
Debris
Shape & HBR
Cyl + 1 Ant, 3.5 m
Radar Cross Section
1.798 m², Large (>1 m²)

Expand to show TLE details & history
Last TLE update: 5 hours ago

TLE from 5 hours ago
0 GONETS M 13 (M23)
1 40554U 15020C   26196.53213164  .00000157  00000-0  10648-2 0  9999
2 40554  82.4854  13.0633 0012801 270.2912  89.6700 12.42872449512227
Epoch: 2026-07-15T12:46Z
TLE epoch observation values (Epoch: 2026-07-15T12:46:16.173Z)
Latitude
-0.00011°
Longitude
-111.89069°
Altitude
1,497.104 km
Speed
7.116 km/s
True Right ascension
00h 52m 15s
True Declination
0° 00' 00"
Sunlit
Object was in daylight at epoch
Visualization orbit readout
Latitude
Unknown
Longitude
Unknown
Altitude
Unknown
Speed
Unknown
Apparent Right ascension
Unknown
Apparent Declination
Unknown
Sunlit
N/A
Visualization observer readout
Local Sidereal Time
05:54:46
Azimuth
Unknown
Elevation
Unknown
Doppler factor
Unknown
Orbital elements
Apogee altitude
1,501.876 km
Perigee altitude
1,481.728 km
Semi-major axis
7,869.939 km
Eccentricity
0.00128
Inclination
82.4854°
RAAN
13.0633°
Arg. of periapsis
270.2912°
True anomaly
89.81669°
Mean anomaly
89.67°
Eccentric anomaly
89.74334°
Mean motion
3.10875 °/min
Orbital period
115.8 mins
BSTAR
0.0010648
Loading maneuver chart data...
Computing Atmospheric mass density...
Loading historical data...
Loading historical data...
Loading historical data...
Loading historical data...
Loading historical data...
Loading historical data...
Loading historical data...

Documentation

Showing up to 5 results
|